Location: Sternwarte Hubelmatt
(47.0367°N, 8.3053°E)
Time: 21:41:26
(UTC+02:00)

CUTE 1.7 + AOD 2 - Visible Passes

Search period start: 22 April 2024 00:00
Search period end: 02 May 2024 00:00
Orbit: 571 x 588 km, 97.7° (Epoch: 21 April)

Date Brightness Start Highest point End Pass type
(mag) Time Alt. Az. Time Alt. Az. Time Alt. Az.
22 Apr ? 03:42:34 10° E 03:43:01 10° E 03:43:27 10° E visible
22 Apr ? 05:14:47 10° N 05:18:52 79° WNW 05:22:56 10° SSW visible
23 Apr ? 03:46:27 10° ENE 03:47:51 11° E 03:49:16 10° ESE visible
23 Apr ? 05:19:34 10° N 05:23:39 70° WNW 05:27:41 10° SSW visible
24 Apr ? 03:50:45 10° ENE 03:52:41 13° E 03:54:35 10° ESE visible
24 Apr ? 05:24:22 10° N 05:28:24 62° WNW 05:32:24 10° SSW visible
25 Apr ? 03:55:11 10° NE 03:57:28 14° E 03:59:44 10° SE visible
25 Apr ? 05:29:07 10° N 05:33:08 55° WNW 05:37:05 10° SSW visible
26 Apr ? 03:59:38 10° NE 04:02:13 16° E 04:04:48 10° SE visible
26 Apr ? 05:33:52 10° N 05:37:49 49° WNW 05:41:44 10° SW visible
27 Apr ? 04:04:07 10° NE 04:06:57 18° E 04:09:47 10° SE visible
27 Apr ? 05:38:36 10° N 05:42:29 44° WNW 05:46:20 10° SW visible
28 Apr ? 04:08:37 10° NE 04:11:39 20° E 04:14:41 10° SE visible
29 Apr ? 04:13:06 10° NE 04:16:20 22° E 04:19:33 10° SE visible
30 Apr ? 04:17:36 10° NE 04:20:59 25° E 04:24:21 10° SSE visible
01 May ? 04:22:05 10° NE 04:25:36 27° E 04:29:06 10° SSE visible
